EW7061 West Harwich MA US current weather conditions

sailwx.info

Wind from 301 at 1 knots gusting 6

Air temperature 10.0° C
Dewpoint 4.8° C

Last reported at 2020-Oct-25 20:02 UTC.
Time now 2020-Oct-26 03:56 UTC

Location: N 41°40' W 070°07'.
View on Google Maps.

See reports from other nearby stations

  
Tides and Currents Weather Stations Pressure Air Temp Water Temp Dewpoint Dewpoint Depression Visibility Wind Speed Wind Dir Waves Ship Positions
date/time (UTC)wind fromknots sea level pressurealtimeterstation pressurevisibilityair tempwater tempwave heightnotes
2020-Oct-25 20:02 301 1 gusting 6 10.0
2020-Oct-25 18:02
2020-Oct-25 17:03 037 2 11.7
2020-Oct-25 16:02
2020-Oct-25 15:02 344 3 11.7
2020-Oct-25 14:02
2020-Oct-25 13:02
2020-Oct-25 12:07
2020-Oct-25 12:02
2020-Oct-25 11:02 010 1 gusting 6 10.0
2020-Oct-25 10:07
2020-Oct-25 10:02
2020-Oct-25 09:07 353 2 10.6
2020-Oct-25 09:02 344 2 10.6
2020-Oct-25 08:07 044 3 10.6
2020-Oct-25 08:02 348 3 10.6
2020-Oct-25 07:57 024 3 10.6
2020-Oct-25 07:52 005 2 10.6
2020-Oct-25 07:47 010 2 10.6
2020-Oct-25 07:42 015 2 10.6
2020-Oct-25 07:37 020 2 10.6
2020-Oct-25 07:32 340 2 10.6
2020-Oct-25 07:27 347 3 11.1
2020-Oct-25 07:22 350 2 11.1
2020-Oct-25 07:17 028 3 11.1
2020-Oct-25 07:12 015 2 11.1
2020-Oct-25 07:07 020 2 11.1
2020-Oct-25 07:02 041 2 11.1
2020-Oct-25 06:57 283 1 10.6
2020-Oct-25 06:52 020 2 10.6
2020-Oct-25 06:47 091 2 10.6
2020-Oct-25 06:42 041 1 10.6
2020-Oct-25 06:37 343 2 10.6
2020-Oct-25 06:32 045 3 10.6
2020-Oct-25 06:27 294 3 10.6
2020-Oct-25 06:22 342 3 10.6
2020-Oct-25 06:17 324 3 10.6
2020-Oct-25 06:12 358 3 10.6
2020-Oct-25 06:07 324 3 10.6
2020-Oct-25 06:02 005 3 10.6
2020-Oct-25 05:57 338 4 11.1
2020-Oct-25 05:52 348 4 11.1
2020-Oct-25 05:47 341 4 11.1
2020-Oct-25 05:42 336 5 11.1
2020-Oct-25 05:37 010 6 11.1
2020-Oct-25 05:32 354 5 11.1
2020-Oct-25 05:27 003 5 11.1
2020-Oct-25 05:22 305 5 11.1
2020-Oct-25 05:17 306 4 gusting 13 11.1
2020-Oct-25 05:12 015 4 gusting 13 11.1
2020-Oct-25 05:07 347 4 gusting 12 11.7
2020-Oct-25 05:02 305 5 gusting 12 11.7
2020-Oct-25 04:57 290 4 gusting 12 11.7
2020-Oct-25 04:52 319 3 gusting 10 11.7
2020-Oct-25 04:47 005 4 gusting 19 11.7
2020-Oct-25 04:42 343 5 gusting 19 11.7
2020-Oct-25 04:37 322 5 gusting 19 11.7
2020-Oct-25 04:32 262 6 gusting 14 11.7
2020-Oct-25 04:27 337 6 gusting 21 11.7
2020-Oct-25 04:22 340 6 gusting 21 11.7
2020-Oct-25 04:17 359 6 gusting 21 12.2
2020-Oct-25 04:12 044 6 gusting 16 12.2
2020-Oct-25 04:07 052 6 gusting 15 12.2
2020-Oct-25 04:02 032 6 gusting 15 12.2
2020-Oct-25 03:57 287 6 gusting 13 12.8
2020-Oct-25 03:52 343 5 gusting 15 12.8
2020-Oct-25 03:47 318 6 gusting 17 12.8
2020-Oct-25 03:42 288 6 gusting 17 12.8
2020-Oct-25 03:37 319 6 gusting 17 12.8
2020-Oct-25 03:32 313 6 gusting 18 13.3
2020-Oct-25 03:27 338 6 gusting 18 13.3
2020-Oct-25 03:22 343 6 gusting 18 13.3
2020-Oct-25 03:17 307 5 gusting 16 13.3
2020-Oct-25 03:12 340 5 gusting 14 13.3
2020-Oct-25 03:07 066 6 gusting 18 13.9
2020-Oct-25 03:02 348 6 gusting 18 13.9
2020-Oct-25 02:57 292 6 gusting 18 13.9
2020-Oct-25 02:52 345 6 gusting 16 13.9
2020-Oct-25 02:47 254 6 gusting 16 14.4
2020-Oct-25 02:42 290 6 gusting 16 14.4
2020-Oct-25 02:37 330 5 gusting 13 14.4
2020-Oct-25 02:32 356 4 gusting 11 14.4
2020-Oct-25 02:27 357 3 gusting 13 14.4
2020-Oct-25 02:22 095 4 gusting 13 14.4
2020-Oct-25 02:17 010 6 gusting 13 14.4
2020-Oct-25 02:12 001 6 gusting 13 14.4
2020-Oct-25 02:07 315 6 gusting 13 15.0
2020-Oct-25 02:02 010 6 gusting 12 15.0
2020-Oct-25 01:57 305 5 gusting 13 15.0
2020-Oct-25 01:52 340 4 gusting 14 15.0
2020-Oct-25 01:47 328 6 gusting 14 15.6
2020-Oct-25 01:42 355 6 gusting 16 15.6
2020-Oct-25 01:37 285 6 gusting 16 15.6
2020-Oct-25 01:32 001 6 gusting 13 15.6
2020-Oct-25 01:27 342 5 gusting 13 15.6
2020-Oct-25 01:22 288 4 gusting 13 15.6
2020-Oct-25 01:17 346 3 gusting 13 15.6
2020-Oct-25 01:12 036 5 gusting 13 16.1
2020-Oct-25 01:07 357 5 gusting 13 16.1
2020-Oct-25 01:02 284 4 gusting 11 16.1
2020-Oct-25 00:57 337 4 gusting 14 16.1
2020-Oct-25 00:52 321 5 gusting 14 16.1
2020-Oct-25 00:47 015 4 gusting 10 16.7
2020-Oct-25 00:42 224 0 gusting 5 17.2
2020-Oct-25 00:37 286 0 gusting 2 17.2
2020-Oct-25 00:32 288 17.2
2020-Oct-25 00:27 292 17.2
2020-Oct-25 00:22 292 17.2
2020-Oct-25 00:17 263 17.2
2020-Oct-25 00:12 264 17.2
2020-Oct-25 00:07 264 17.2
2020-Oct-25 00:02 264 17.8
2020-Oct-24 23:57 267 17.8
2020-Oct-24 23:52 266 0 gusting 5 17.8
2020-Oct-24 23:47 267 1 gusting 5 17.8
2020-Oct-24 23:42 280 1 gusting 5 17.8
2020-Oct-24 23:37 236 0 gusting 5 17.8
2020-Oct-24 23:32 286 1 gusting 6 17.8
2020-Oct-24 23:27 260 1 gusting 6 17.8
2020-Oct-24 23:22 282 1 gusting 5 17.8
2020-Oct-24 23:17 294 1 gusting 4 17.8
2020-Oct-24 23:12 227 0 gusting 4 17.8
2020-Oct-24 23:07 282 0 gusting 4 17.8
2020-Oct-24 23:02 271 1 gusting 4 17.8
2020-Oct-24 22:57 321 1 gusting 4 17.8
2020-Oct-24 22:52 269 0 gusting 6 17.8
2020-Oct-24 22:47 279 1 gusting 6 17.8
2020-Oct-24 22:42 224 1 gusting 6 17.8
2020-Oct-24 22:37 287 0 gusting 6 17.8
2020-Oct-24 22:32 277 0 gusting 5 17.2
2020-Oct-24 22:27 182 0 gusting 3 17.2
2020-Oct-24 22:22 273 0 gusting 6 17.2
2020-Oct-24 22:17 231 0 gusting 6 17.2
2020-Oct-24 22:12 184 1 gusting 6 17.2
2020-Oct-24 22:07 253 0 gusting 6 17.2
2020-Oct-24 22:02 298 1 gusting 6 17.2
2020-Oct-24 21:57 256 1 gusting 6 17.2
2020-Oct-24 21:52 192 1 gusting 6 17.2
2020-Oct-24 21:47 127 1 gusting 6 17.2
2020-Oct-24 21:42 216 1 gusting 6 17.2
2020-Oct-24 21:37 213 1 gusting 5 17.8
2020-Oct-24 21:32 290 1 gusting 7 17.2
2020-Oct-24 21:27 313 1 gusting 7 17.8
2020-Oct-24 21:22 326 1 gusting 7 17.8
2020-Oct-24 21:17 303 1 gusting 6 17.8
2020-Oct-24 21:12 161 1 gusting 6 17.8
2020-Oct-24 21:07 232 1 gusting 6 17.8
2020-Oct-24 21:02 254 1 gusting 7 17.8
2020-Oct-24 20:57 185 2 gusting 7 17.8
2020-Oct-24 20:52 345 3 gusting 7 17.8
2020-Oct-24 20:47 292 2 gusting 7 17.8
2020-Oct-24 20:42 186 2 gusting 6 17.8
2020-Oct-24 20:37 207 1 gusting 6 17.8
2020-Oct-24 20:32 130 1 gusting 6 17.8
2020-Oct-24 20:27 205 1 gusting 6 17.8
2020-Oct-24 20:22 264 1 gusting 9 17.8
2020-Oct-24 20:17 231 1 gusting 9 18.3
2020-Oct-24 20:12 010 2 gusting 9 18.3
2020-Oct-24 20:07 271 2 gusting 9 18.3
2020-Oct-24 20:02 197 2 gusting 8 18.3
2020-Oct-24 19:57 176 1 gusting 8 18.3
2020-Oct-24 19:52 328 1 gusting 8 18.3
2020-Oct-24 19:47 116 2 gusting 8 18.3
2020-Oct-24 19:42 280 2 gusting 8 17.8
2020-Oct-24 19:37 289 2 gusting 9 17.8
2020-Oct-24 19:32 168 3 gusting 9 17.8
2020-Oct-24 19:27 236 2 gusting 10 17.8
2020-Oct-24 19:22 200 2 gusting 10 17.8
2020-Oct-24 19:17 300 1 gusting 10 17.8
2020-Oct-24 19:12 263 1 gusting 7 17.2
2020-Oct-24 19:07 080 2 gusting 7 17.2
2020-Oct-24 19:02 306 1 gusting 6 17.2
2020-Oct-24 18:57 151 1 gusting 9 17.8
2020-Oct-24 18:52 229 2 gusting 9 17.8
2020-Oct-24 18:47 226 3 gusting 9 17.8
2020-Oct-24 18:42 288 2 gusting 8 17.8
2020-Oct-24 18:37 155 1 gusting 8 17.8
2020-Oct-24 18:32 093 2 gusting 8 17.8
2020-Oct-24 18:27 217 2 gusting 8 17.8
2020-Oct-24 18:22 288 2 gusting 7 17.8
2020-Oct-24 18:17 217 1 gusting 7 17.8
2020-Oct-24 18:12 130 1 gusting 6 17.8
2020-Oct-24 18:07 291 1 gusting 6 17.2
2020-Oct-24 18:02 169 1 gusting 6 17.2
2020-Oct-24 17:57 177 1 gusting 6 17.2
2020-Oct-24 17:52 197 1 gusting 6 17.2
2020-Oct-24 17:47 239 1 gusting 6 17.2
2020-Oct-24 17:42 177 1 gusting 6 17.2
2020-Oct-24 17:37 168 1 gusting 6 17.2
2020-Oct-24 17:32 176 1 gusting 7 17.2
2020-Oct-24 17:27 208 2 gusting 7 17.8
2020-Oct-24 17:22 238 2 gusting 7 17.8
2020-Oct-24 17:17 179 2 gusting 10 17.8
2020-Oct-24 17:12 326 2 gusting 10 17.8
2020-Oct-24 17:07 203 3 gusting 10 17.8
2020-Oct-24 17:02 244 2 gusting 9 17.8
2020-Oct-24 16:57 169 1 gusting 7 17.8
2020-Oct-24 16:52 048 1 gusting 7 17.8
2020-Oct-24 16:47 188 1 gusting 7 17.8
2020-Oct-24 16:42 259 2 gusting 6 17.2
2020-Oct-24 16:37 207 2 gusting 6 17.2
2020-Oct-24 16:32 157 1 gusting 6 17.2
2020-Oct-24 16:27 234 1 gusting 6 17.2
2020-Oct-24 16:22 173 1 gusting 6 17.2
2020-Oct-24 16:17 170 1 gusting 5 17.2
2020-Oct-24 16:12 209 1 gusting 7 16.7
2020-Oct-24 16:07 172 2 gusting 7 17.2
2020-Oct-24 16:02 170 2 gusting 7 17.2
2020-Oct-24 15:57 179 1 gusting 6 16.7
2020-Oct-24 15:52 168 1 gusting 6 16.7
2020-Oct-24 15:47 217 1 gusting 7 17.2
2020-Oct-24 15:42 288 2 gusting 7 16.7
2020-Oct-24 15:37 183 1 gusting 7 16.7
2020-Oct-24 15:32 222 1 gusting 7 16.7
2020-Oct-24 15:27 266 2 gusting 7 16.7
2020-Oct-24 15:22 265 1 gusting 7 16.7
2020-Oct-24 15:17 166 1 gusting 6 17.2
2020-Oct-24 15:13 185 1 gusting 4 16.7
2020-Oct-24 15:07 236 1 gusting 5 16.7
2020-Oct-24 15:02 189 1 gusting 5 16.7
2020-Oct-24 14:57 296 1 gusting 6 16.7
2020-Oct-24 14:52 165 1 gusting 6 16.7
2020-Oct-24 14:47 170 1 gusting 6 16.7
2020-Oct-24 14:42 183 1 gusting 5 16.7
2020-Oct-24 14:37 178 0 gusting 5 16.7
2020-Oct-24 14:32 177 1 gusting 5 16.7
2020-Oct-24 14:27 176 1 gusting 5 16.7
2020-Oct-24 14:22 174 1 gusting 5 16.7
2020-Oct-24 14:17 189 0 gusting 4 16.7
2020-Oct-24 14:12 189 0 gusting 4 16.7
2020-Oct-24 14:07 187 1 gusting 3 16.1
2020-Oct-24 14:02 272 0 gusting 3 16.1
2020-Oct-24 13:57 217 0 gusting 3 16.7
2020-Oct-24 13:52 147 0 gusting 3 16.7
2020-Oct-24 13:47 147 0 gusting 3 16.7
2020-Oct-24 13:42 219 0 gusting 3 16.7
2020-Oct-24 13:37 147 0 gusting 2 16.7
2020-Oct-24 13:32 132 16.1
2020-Oct-24 13:27 083 0 gusting 2 16.1
2020-Oct-24 13:22 210 0 gusting 2 15.6
2020-Oct-24 13:17 210 0 gusting 5 15.6
2020-Oct-24 13:12 208 0 gusting 6 15.6
2020-Oct-24 13:07 208 1 gusting 6 15.6
2020-Oct-24 13:02 276 1 gusting 4 15.6
2020-Oct-24 12:57 286 1 gusting 4 15.6
2020-Oct-24 12:52 259 0 gusting 2 15.0
2020-Oct-24 12:47 284 15.0
2020-Oct-24 12:42 283 0 gusting 2 15.0
2020-Oct-24 12:37 283 0 gusting 5 15.0
2020-Oct-24 12:32 281 0 gusting 5 15.0
2020-Oct-24 12:27 281 0 gusting 5 15.0
2020-Oct-24 12:22 284 0 gusting 3 15.0
2020-Oct-24 12:17 295 0 gusting 3 15.0
2020-Oct-24 12:12 307 0 gusting 3 15.0
2020-Oct-24 12:07 307 15.0
2020-Oct-24 12:02 299 15.0
2020-Oct-24 11:57 299 15.0
2020-Oct-24 11:52 103 14.4
2020-Oct-24 11:47 103 14.4
2020-Oct-24 11:42 103 15.0
2020-Oct-24 11:37 103 15.0
2020-Oct-24 11:32 103 15.0
2020-Oct-24 11:27 103 15.0
2020-Oct-24 11:22 103 15.0
2020-Oct-24 11:17 103 15.0
2020-Oct-24 11:12 103 15.0
2020-Oct-24 11:07 103 15.0
2020-Oct-24 11:02 103 15.0
2020-Oct-24 10:57 103 14.4
2020-Oct-24 10:52 103 14.4
2020-Oct-24 10:47 103 14.4
2020-Oct-24 10:42 106 14.4
2020-Oct-24 10:37 106 14.4
2020-Oct-24 10:32 106 14.4
2020-Oct-24 10:27 106 15.0
2020-Oct-24 10:22 104 15.0
2020-Oct-24 10:17 104 15.0
2020-Oct-24 10:12 104 15.0
2020-Oct-24 10:07 104 15.0
2020-Oct-24 10:02 104 15.0
2020-Oct-24 09:57 104 15.0
2020-Oct-24 09:52 104 15.0
2020-Oct-24 09:47 104 15.0
2020-Oct-24 09:42 104 15.0
2020-Oct-24 09:37 104 15.0
2020-Oct-24 09:32 104 15.0
2020-Oct-24 09:27 104 15.0
2020-Oct-24 09:22 104 15.0
2020-Oct-24 09:17 104 15.0
2020-Oct-24 09:12 104 15.0
2020-Oct-24 09:07 104 15.0
2020-Oct-24 09:02 104 15.0
2020-Oct-24 08:57 104 15.0
2020-Oct-24 08:52 104 15.0
2020-Oct-24 08:47 104 15.0
2020-Oct-24 08:42 104 15.0
2020-Oct-24 08:37 104 15.0
2020-Oct-24 08:32 104 15.0
2020-Oct-24 08:27 104 15.0
2020-Oct-24 08:22 104 15.0
2020-Oct-24 08:17 104 15.0
2020-Oct-24 08:12 104 15.0
2020-Oct-24 08:07 104 15.0
2020-Oct-24 08:02 104 15.0
2020-Oct-24 07:57 104 15.0
2020-Oct-24 07:52 104 15.0
2020-Oct-24 07:47 104 15.0
2020-Oct-24 07:42 104 15.0
2020-Oct-24 07:37 104 15.0
2020-Oct-24 07:32 104 15.0
2020-Oct-24 07:27 104 15.0
2020-Oct-24 07:22 104 15.0
2020-Oct-24 07:17 104 15.0
2020-Oct-24 07:12 104 15.0
2020-Oct-24 07:07 104 15.0
2020-Oct-24 07:02 104 15.0
2020-Oct-24 06:57 104 15.0
2020-Oct-24 06:52 104 15.0
2020-Oct-24 06:47 104 15.0
2020-Oct-24 06:42 104 15.0
2020-Oct-24 06:37 104 15.0
2020-Oct-24 06:32 104 15.0
2020-Oct-24 06:27 104 15.0
2020-Oct-24 06:22 104 15.0
2020-Oct-24 06:17 104 15.0
2020-Oct-24 06:12 104 15.0
2020-Oct-24 06:07 104 15.0
2020-Oct-24 06:02 104 15.0
2020-Oct-24 05:57 104 15.0
2020-Oct-24 05:52 104 15.0
2020-Oct-24 05:47 104 15.0
2020-Oct-24 05:42 104 15.6
2020-Oct-24 05:37 104 15.6
2020-Oct-24 05:32 104 15.6
2020-Oct-24 05:27 104 15.6
2020-Oct-24 05:22 104 15.6
2020-Oct-24 05:17 104 15.6
2020-Oct-24 05:12 104 15.6
2020-Oct-24 05:07 104 15.6
2020-Oct-24 05:02 104 15.6
2020-Oct-24 04:57 104 15.6
2020-Oct-24 04:52 104 15.6
2020-Oct-24 04:47 104 15.6
2020-Oct-24 04:42 104 0 gusting 2 15.6
2020-Oct-24 04:37 103 0 gusting 2 15.6
2020-Oct-24 04:32 105 0 gusting 2 15.6
2020-Oct-24 04:27 105 0 gusting 2 15.6
2020-Oct-24 04:22 104 0 gusting 2 15.6
2020-Oct-24 04:17 136 0 gusting 2 15.6
2020-Oct-24 04:12 136 15.6
2020-Oct-24 04:07 130 15.6
2020-Oct-24 04:02 130 15.6
2020-Oct-24 03:57 098 15.6
2020-Oct-24 03:52 094 0 gusting 3 15.6
2020-Oct-24 03:47 094 1 gusting 3 15.6
2020-Oct-24 03:42 111 0 gusting 3 15.6
2020-Oct-24 03:37 124 0 gusting 3 15.6
2020-Oct-24 03:32 099 0 gusting 3 15.6
2020-Oct-24 03:27 124 0 gusting 2 15.6
2020-Oct-24 03:22 093 0 gusting 2 15.6
2020-Oct-24 03:17 105 0 gusting 3 15.6
2020-Oct-24 03:12 092 0 gusting 3 15.6
2020-Oct-24 03:07 101 0 gusting 3 15.0
2020-Oct-24 03:02 122 0 gusting 3 15.0